Location: Rounton
(54.4000°N, 1.3500°W)
Time: 06:43:47
(UTC+01:00)

deb Agena D - Pass Details

Date: 18 June 2023
Orbit: 996 x 1023 km, 100.1° (Epoch: 29 September)

Event Time Altitude Azimuth Distance (km) Brightness Sun altitude
Rises 22:55:07 0° 104° (ESE) 3,721 ? -7.2°
Reaches altitude 10° 22:58:14 10° 89° (E) 2,772 ? -7.4°
Maximum altitude 23:02:34 20° 44° (NE) 2,111 ? -7.7°
Drops below altitude 10° 23:06:55 10° 359° (N) 2,778 ? -8.0°
Sets 23:10:02 0° 344° (NNW) 3,732 ? -8.2°
